Weather History for KDUH - September, 2013

Change the Weather History Date:

Saturday, September 21, 2013

  Actual Average (KTOL) Record (KTOL)
Temperature  
Mean Temperature 62 °F 62 °F  
Max Temperature 69 °F 73 °F 93 °F (1970)
Min Temperature 53 °F 51 °F 30 °F (1962)
Degree Days  
Heating Degree Days 3 5  
Month to date heating degree days 52  
Since 1 July heating degree days 66  
Cooling Degree Days 0 2  
Month to date cooling degree days 71  
Year to date cooling degree days 773  
Growing Degree Days 12 (Base 50)    
Moisture  
Dew Point 54 °F    
Average Humidity 72    
Maximum Humidity 94    
Minimum Humidity 40    
Precipitation  
Precipitation 0.00 in 0.10 in - ()
Month to date precipitation 1.98  
Year to date precipitation 25.30  
Snow  
Snow 0.00 in 0.00 in - ()
Month to date snowfall 0.0  
Since 1 July snowfall 0.0  
Since 1 September snowfall 0.0  
Snow Depth -    
Sea Level Pressure  
Sea Level Pressure 29.77 in    
Wind  
Wind Speed 5 mph (WNW)    
Max Wind Speed 12 mph    
Max Gust Speed 18 mph    
Visibility 9 miles    
Events Rain    
T = Trace of Precipitation, MM = Missing Value Source: NWS Daily Summary

Daily Weather History Graph

Daily Weather History Graph

Search for Another Location

Airport or City:

Trip Planner

Search our weather history database for the weather conditions in past years. The results will help you decide how hot, cold, wet, or windy it might be!

Date:

Astronomy

Sep. 21, 2013 Rise Set
Actual Time 7:21 AM EDT 7:33 PM EDT
Civil Twilight 6:53 AM EDT 8:00 PM EDT
Nautical Twilight 6:20 AM EDT 8:33 PM EDT
Astronomical Twilight 5:47 AM EDT 9:06 PM EDT
Moon 8:40 PM EDT (9/21) 9:41 AM EDT (9/21)
Length of Visible Light 13h 07m
Length of Day
12h 11m
Waning Gibbous, 94% of the Moon is Illuminated
Sep 21
Waning Gibbous
Sep 26
Last Quarter
Oct 4
New
Oct 11
First Quarter
Oct 18
Full

Hourly Weather History & Observations

Time (EDT) Temp. Dew Point Humidity Pressure Visibility Wind Dir Wind Speed Gust Speed Precip Events Conditions
12:15 AM 69.8 °F 66.2 °F 88% 29.75 in 7.0 mi SSW 5.8 mph - N/A   Drizzle
12:35 AM 69.8 °F 66.2 °F 88% 29.76 in 5.0 mi WNW 6.9 mph - N/A Rain Heavy Rain
12:55 AM 68.0 °F 64.4 °F 88% 29.76 in 5.0 mi West 4.6 mph - N/A Rain Rain
1:15 AM 68.0 °F 64.4 °F 88% 29.75 in 5.0 mi Calm Calm - N/A Rain Rain
1:35 AM 66.2 °F 62.6 °F 88% 29.75 in 7.0 mi West 4.6 mph - N/A Rain Rain
1:55 AM 66.2 °F 62.6 °F 88% 29.75 in 5.0 mi Calm Calm - N/A Rain Rain
2:15 AM 66.2 °F 62.6 °F 88% 29.75 in 7.0 mi Calm Calm - N/A Rain Light Rain
2:35 AM 64.4 °F 62.6 °F 94% 29.75 in 5.0 mi WSW 3.5 mph - N/A Rain Rain
2:55 AM 64.4 °F 62.6 °F 94% 29.74 in 5.0 mi Calm Calm - N/A Rain Light Rain
3:15 AM 64.4 °F 62.6 °F 94% 29.73 in 5.0 mi Calm Calm - N/A Rain Light Rain
3:35 AM 64.4 °F 62.6 °F 94% 29.73 in 5.0 mi West 3.5 mph - N/A Rain Light Rain
3:55 AM 64.4 °F 62.6 °F 94% 29.72 in 5.0 mi Calm Calm - N/A Rain Light Rain
4:15 AM 64.4 °F 62.6 °F 94% 29.72 in 5.0 mi West 3.5 mph - N/A   Overcast
4:35 AM 64.4 °F 62.6 °F 94% 29.71 in 7.0 mi West 3.5 mph - N/A   Overcast
4:55 AM 64.4 °F 60.8 °F 88% 29.72 in 10.0 mi WNW 4.6 mph - N/A   Overcast
5:15 AM 62.6 °F 59.0 °F 88% 29.72 in 10.0 mi NW 4.6 mph - N/A   Overcast
5:35 AM 62.6 °F 59.0 °F 88% 29.71 in 10.0 mi Calm Calm - N/A   Overcast
5:55 AM 62.6 °F 59.0 °F 88% 29.71 in 10.0 mi WNW 3.5 mph - N/A   Overcast
6:15 AM 62.6 °F 59.0 °F 88% 29.71 in 10.0 mi Calm Calm - N/A   Mostly Cloudy
6:35 AM 62.6 °F 59.0 °F 88% 29.72 in 10.0 mi West 5.8 mph - N/A   Mostly Cloudy
6:55 AM 62.6 °F 59.0 °F 88% 29.71 in 10.0 mi West 3.5 mph - N/A   Mostly Cloudy
7:15 AM 60.8 °F 57.2 °F 88% 29.71 in 10.0 mi West 4.6 mph - N/A   Mostly Cloudy
7:35 AM 60.8 °F 57.2 °F 88% 29.72 in 10.0 mi Calm Calm - N/A   Scattered Clouds
7:55 AM 60.8 °F 57.2 °F 88% 29.72 in 10.0 mi West 3.5 mph - N/A   Clear
8:15 AM 60.8 °F 57.2 °F 88% 29.72 in 7.0 mi Calm Calm - N/A   Clear
8:35 AM 60.8 °F 57.2 °F 88% 29.72 in 7.0 mi Calm Calm - N/A   Clear
8:55 AM 60.8 °F 55.4 °F 82% 29.73 in 7.0 mi WNW 3.5 mph - N/A   Clear
9:15 AM 60.8 °F 57.2 °F 88% 29.73 in 10.0 mi West 4.6 mph - N/A   Clear
9:35 AM 60.8 °F 57.2 °F 88% 29.74 in 10.0 mi WNW 4.6 mph - N/A   Mostly Cloudy
9:55 AM 60.8 °F 57.2 °F 88% 29.75 in 10.0 mi West 5.8 mph - N/A   Mostly Cloudy
10:15 AM 62.6 °F 57.2 °F 82% 29.75 in 10.0 mi WNW 4.6 mph - N/A   Mostly Cloudy
10:35 AM 62.6 °F 55.4 °F 77% 29.75 in 10.0 mi WNW 9.2 mph - N/A   Mostly Cloudy
10:55 AM 62.6 °F 55.4 °F 77% 29.75 in 10.0 mi WNW 9.2 mph - N/A   Overcast
11:15 AM 62.6 °F 55.4 °F 77% 29.75 in 10.0 mi NW 8.1 mph - N/A   Overcast
11:35 AM 64.4 °F 53.6 °F 68% 29.75 in 10.0 mi NW 8.1 mph 17.3 mph N/A   Overcast
11:55 AM 64.4 °F 55.4 °F 73% 29.75 in 10.0 mi NNW 5.8 mph - N/A   Overcast
12:15 PM 66.2 °F 53.6 °F 64% 29.75 in 10.0 mi NW 9.2 mph 18.4 mph N/A   Mostly Cloudy
12:35 PM 68.0 °F 53.6 °F 60% 29.75 in 10.0 mi NNW 5.8 mph 17.3 mph N/A   Mostly Cloudy
12:55 PM 68.0 °F 53.6 °F 60% 29.75 in 10.0 mi NNW 10.4 mph 17.3 mph N/A   Scattered Clouds
1:15 PM 68.0 °F 51.8 °F 56% 29.75 in 10.0 mi NNW 9.2 mph 16.1 mph N/A   Scattered Clouds
1:35 PM 69.8 °F 51.8 °F 53% 29.75 in 10.0 mi NW 10.4 mph 18.4 mph N/A   Scattered Clouds
1:55 PM 66.2 °F 53.6 °F 64% 29.76 in 10.0 mi WNW 8.1 mph 17.3 mph N/A   Overcast
2:15 PM 68.0 °F 53.6 °F 60% 29.75 in 10.0 mi WNW 5.8 mph - N/A   Overcast
2:35 PM 68.0 °F 51.8 °F 56% 29.75 in 10.0 mi North 11.5 mph - N/A   Overcast
2:55 PM 68.0 °F 51.8 °F 56% 29.75 in 10.0 mi NW 8.1 mph - N/A   Mostly Cloudy
3:15 PM 69.8 °F 50.0 °F 49% 29.75 in 10.0 mi NW 11.5 mph 16.1 mph N/A   Scattered Clouds
3:35 PM 69.8 °F 46.4 °F 43% 29.76 in 10.0 mi NNW 9.2 mph 16.1 mph N/A   Scattered Clouds
3:55 PM 69.8 °F 46.4 °F 43% 29.76 in 10.0 mi NW 9.2 mph 18.4 mph N/A   Scattered Clouds
4:15 PM 68.0 °F 44.6 °F 43% 29.77 in 10.0 mi NW 6.9 mph - N/A   Scattered Clouds
4:35 PM 69.8 °F 44.6 °F 40% 29.76 in 10.0 mi West 9.2 mph 17.3 mph N/A   Scattered Clouds
4:55 PM 69.8 °F 44.6 °F 40% 29.77 in 10.0 mi NNW 11.5 mph 17.3 mph N/A   Scattered Clouds
5:15 PM 68.0 °F 44.6 °F 43% 29.78 in 10.0 mi NW 8.1 mph - N/A   Mostly Cloudy
5:35 PM 68.0 °F 44.6 °F 43% 29.78 in 10.0 mi NW 10.4 mph - N/A   Mostly Cloudy
5:55 PM 66.2 °F 46.4 °F 49% 29.79 in 10.0 mi NW 4.6 mph - N/A   Scattered Clouds
6:15 PM 68.0 °F 44.6 °F 43% 29.79 in 10.0 mi NW 9.2 mph - N/A   Mostly Cloudy
6:35 PM 66.2 °F 44.6 °F 46% 29.79 in 10.0 mi NW 6.9 mph 16.1 mph N/A   Overcast
6:55 PM 64.4 °F 44.6 °F 49% 29.80 in 10.0 mi NW 6.9 mph - N/A   Scattered Clouds
7:15 PM 62.6 °F 46.4 °F 55% 29.81 in 10.0 mi NW 5.8 mph - N/A   Clear
7:35 PM 62.6 °F 46.4 °F 55% 29.81 in 10.0 mi NW 6.9 mph - N/A   Scattered Clouds
7:55 PM 62.6 °F 46.4 °F 55% 29.82 in 10.0 mi NW 4.6 mph - N/A   Overcast
8:15 PM 60.8 °F 46.4 °F 59% 29.82 in 10.0 mi NW 4.6 mph - N/A   Overcast
8:35 PM 60.8 °F 46.4 °F 59% 29.83 in 10.0 mi NW 5.8 mph - N/A   Overcast
8:55 PM 60.8 °F 46.4 °F 59% 29.84 in 10.0 mi NW 3.5 mph - N/A   Scattered Clouds
9:15 PM 59.0 °F 46.4 °F 63% 29.85 in 10.0 mi West 3.5 mph - N/A   Scattered Clouds
9:35 PM 57.2 °F 48.2 °F 72% 29.85 in 10.0 mi Calm Calm - N/A   Scattered Clouds
9:55 PM 57.2 °F 48.2 °F 72% 29.85 in 10.0 mi NW 3.5 mph - N/A   Mostly Cloudy
10:15 PM 59.0 °F 48.2 °F 67% 29.86 in 10.0 mi NNW 5.8 mph - N/A   Overcast
10:35 PM 59.0 °F 46.4 °F 63% 29.86 in 10.0 mi NNW 6.9 mph - N/A   Overcast
10:55 PM 57.2 °F 46.4 °F 67% 29.87 in 10.0 mi NNW 3.5 mph - N/A   Overcast
11:15 PM 55.4 °F 46.4 °F 72% 29.87 in 10.0 mi NW 3.5 mph - N/A   Scattered Clouds
11:35 PM 55.4 °F 46.4 °F 72% 29.87 in 10.0 mi Calm Calm - N/A   Clear
11:55 PM 53.6 °F 46.4 °F 77% 29.88 in 10.0 mi Calm Calm - N/A   Clear